Location: ???????
(55.4362°N, 38.1183°E)
Time: 19:27:14
(UTC+00:00)

M-CUBED/EXP-1 PRIME - Pass Details

Date: 06 December 2021
Orbit: 426 x 650 km, 101.7° (Epoch: 26 January)

Event Time Altitude Azimuth Distance (km) Brightness Sun altitude
Rises 04:45:21 0° 23° (NNE) 2,992 ? -7.0°
Reaches altitude 10° 04:47:36 10° 26° (NNE) 2,073 ? -6.7°
Maximum altitude 04:52:07 67° 109° (ESE) 700 ? -6.2°
Drops below altitude 10° 04:56:29 10° 193° (SSW) 1,998 ? -5.6°
Sets 04:58:37 0° 196° (SSW) 2,874 ? -5.4°
